Weather History for KAJZ - March, 2013

Change the Weather History Date:

Friday, March 8, 2013

  Actual Average (KMTJ) Record (KMTJ)
Temperature  
Mean Temperature 47 °F 39 °F  
Max Temperature 57 °F 52 °F 62 °F (2004)
Min Temperature 37 °F 26 °F 10 °F (1998)
Degree Days  
Heating Degree Days 18 26  
Month to date heating degree days 217  
Since 1 July heating degree days 4932  
Cooling Degree Days 0 0  
Month to date cooling degree days 0  
Year to date cooling degree days 0  
Moisture  
Dew Point 29 °F    
Average Humidity 57    
Maximum Humidity 91    
Minimum Humidity 25    
Precipitation  
Precipitation 0.00 in 0.03 in 0.38 in (2002)
Month to date precipitation 0.27  
Year to date precipitation 1.50  
Sea Level Pressure  
Sea Level Pressure 29.82 in    
Wind  
Wind Speed 6 mph (NE)    
Max Wind Speed 16 mph    
Max Gust Speed 23 mph    
Visibility 10 miles    
Events Rain    
T = Trace of Precipitation, MM = Missing Value Source: NWS Daily Summary

Daily Weather History Graph

Daily Weather History Graph

Search for Another Location

Airport or City:

Trip Planner

Search our weather history database for the weather conditions in past years. The results will help you decide how hot, cold, wet, or windy it might be!

Date:

Astronomy

Mar. 08, 2013 Rise Set
Actual Time 6:33 AM MST 6:12 PM MST
Civil Twilight 6:07 AM MST 6:39 PM MST
Nautical Twilight 5:36 AM MST 7:10 PM MST
Astronomical Twilight 5:05 AM MST 7:41 PM MST
Moon 4:18 AM MST (3/8) 3:12 PM MST (3/8)
Length of Visible Light 12h 31m
Length of Day
11h 38m
Waning Crescent, 11% of the Moon is Illuminated
Mar 8
Waning Crescent
Mar 11
New
Mar 19
First Quarter
Mar 27
Full
Apr 2
Last Quarter

Hourly Weather History & Observations

Time (MST) Temp. Windchill Dew Point Humidity Pressure Visibility Wind Dir Wind Speed Gust Speed Precip Events Conditions
12:15 AM 41.4 °F - 19.6 °F 42% 29.93 in 10.0 mi Calm Calm - N/A   Clear
12:35 AM 38.7 °F 35.2 °F 20.1 °F 47% 29.93 in 10.0 mi NE 4.6 mph - N/A   Clear
12:55 AM 39.0 °F 34.8 °F 19.8 °F 46% 29.93 in 10.0 mi NE 5.8 mph - N/A   Clear
1:15 AM 39.2 °F 34.2 °F 19.4 °F 45% 29.94 in 10.0 mi NNE 6.9 mph - N/A   Clear
1:35 AM 41.2 °F 35.5 °F 19.9 °F 43% 29.94 in 10.0 mi North 9.2 mph - N/A   Clear
1:55 AM 42.6 °F 38.4 °F 19.9 °F 40% 29.94 in 10.0 mi NNE 6.9 mph - N/A   Clear
2:15 AM 42.4 °F 38.1 °F 20.5 °F 42% 29.93 in 10.0 mi NNE 6.9 mph - N/A   Clear
2:35 AM 40.8 °F 35.0 °F 20.7 °F 45% 29.92 in 10.0 mi NNE 9.2 mph - N/A   Clear
2:55 AM 43.0 °F 38.2 °F 19.6 °F 39% 29.91 in 10.0 mi NE 8.1 mph - N/A   Clear
3:15 AM 41.4 °F 35.7 °F 19.2 °F 41% 29.91 in 10.0 mi NE 9.2 mph - N/A   Clear
3:35 AM 40.1 °F 35.3 °F 19.4 °F 43% 29.91 in 10.0 mi NE 6.9 mph - N/A   Clear
3:55 AM 38.5 °F 34.1 °F 20.1 °F 48% 29.91 in 10.0 mi NE 5.8 mph - N/A   Clear
4:15 AM 39.4 °F 35.2 °F 19.8 °F 45% 29.90 in 10.0 mi NNE 5.8 mph - N/A   Clear
4:35 AM 41.5 °F - 18.3 °F 39% 29.92 in 10.0 mi Calm Calm - N/A   Clear
4:55 AM 38.7 °F 36.3 °F 19.8 °F 47% 29.92 in 10.0 mi ENE 3.5 mph - N/A   Scattered Clouds
5:15 AM 38.8 °F 35.4 °F 19.9 °F 47% 29.91 in 10.0 mi East 4.6 mph - N/A   Scattered Clouds
5:35 AM 38.5 °F 35.0 °F 20.3 °F 48% 29.91 in 10.0 mi East 4.6 mph - N/A   Clear
5:55 AM 39.6 °F 34.7 °F 20.8 °F 47% 29.92 in 10.0 mi East 6.9 mph - N/A   Mostly Cloudy
6:15 AM 40.3 °F 37.1 °F 21.2 °F 47% 29.92 in 10.0 mi ENE 4.6 mph - N/A   Mostly Cloudy
6:35 AM 39.2 °F 37.0 °F 22.5 °F 51% 29.91 in 10.0 mi NE 3.5 mph - N/A   Mostly Cloudy
6:55 AM 38.7 °F - 23.2 °F 54% 29.91 in 10.0 mi Calm Calm - N/A   Scattered Clouds
7:15 AM 37.2 °F - 24.8 °F 61% 29.91 in 10.0 mi Calm Calm - N/A   Scattered Clouds
7:35 AM 38.5 °F - 24.8 °F 58% 29.90 in 10.0 mi Calm Calm - N/A   Scattered Clouds
7:55 AM 42.3 °F 39.4 °F 25.3 °F 51% 29.89 in 10.0 mi NE 4.6 mph - N/A   Mostly Cloudy
8:15 AM 43.9 °F 42.3 °F 26.1 °F 50% 29.89 in 10.0 mi South 3.5 mph - N/A   Scattered Clouds
8:35 AM 42.8 °F - 26.6 °F 53% 29.89 in 10.0 mi Calm Calm - N/A   Mostly Cloudy
8:55 AM 45.3 °F 44.0 °F 26.4 °F 48% 29.88 in 10.0 mi WSW 3.5 mph - N/A   Mostly Cloudy
9:15 AM 46.4 °F - 26.2 °F 45% 29.86 in 10.0 mi Calm Calm - N/A   Overcast
9:35 AM 47.7 °F - 25.9 °F 43% 29.85 in 10.0 mi West 4.6 mph - N/A   Overcast
9:55 AM 50.5 °F - 25.7 °F 38% 29.84 in 10.0 mi NNW 4.6 mph - N/A   Mostly Cloudy
10:15 AM 53.8 °F - 25.7 °F 34% 29.84 in 10.0 mi SSW 11.5 mph - N/A   Scattered Clouds
10:35 AM 52.2 °F - 22.1 °F 31% 29.84 in 10.0 mi WSW 10.4 mph - N/A   Scattered Clouds
10:55 AM 54.9 °F - 19.0 °F 25% 29.84 in 10.0 mi WSW 8.1 mph - N/A   Scattered Clouds
11:15 AM 57.0 °F - 22.6 °F 26% 29.83 in 10.0 mi West 10.4 mph 16.1 mph N/A   Mostly Cloudy
11:35 AM 56.5 °F - 25.5 °F 30% 29.82 in 10.0 mi SW 16.1 mph 19.6 mph N/A   Mostly Cloudy
11:55 AM 56.5 °F - 25.7 °F 31% 29.81 in 10.0 mi West 8.1 mph - N/A   Mostly Cloudy
12:15 PM 56.8 °F - 26.2 °F 31% 29.81 in 10.0 mi WSW 6.9 mph - N/A   Overcast
12:35 PM 55.6 °F - 26.8 °F 33% 29.80 in 10.0 mi West 5.8 mph 9.2 mph N/A   Overcast
12:55 PM 56.5 °F - 26.8 °F 32% 29.77 in 10.0 mi Calm Calm - N/A   Overcast
1:15 PM 56.8 °F - 27.7 °F 33% 29.76 in 10.0 mi West 9.2 mph - N/A   Mostly Cloudy
1:35 PM 55.9 °F - 26.2 °F 32% 29.75 in 10.0 mi West 5.8 mph - N/A   Overcast
1:55 PM 55.0 °F - 29.8 °F 38% 29.75 in 10.0 mi SW 11.5 mph - N/A   Overcast
2:15 PM 54.3 °F - 30.6 °F 40% 29.75 in 10.0 mi WSW 16.1 mph 21.9 mph N/A   Overcast
2:35 PM 52.0 °F - 32.9 °F 48% 29.76 in 10.0 mi WSW 12.7 mph 20.7 mph N/A   Overcast
2:55 PM 50.5 °F - 34.5 °F 54% 29.78 in 10.0 mi SW 16.1 mph 23.0 mph N/A   Overcast
3:15 PM 49.3 °F - 35.2 °F 58% 29.78 in 10.0 mi SSW 10.4 mph - N/A   Light Drizzle
3:35 PM 49.1 °F - 35.4 °F 59% 29.77 in 10.0 mi SSE 6.9 mph - N/A   Light Drizzle
3:55 PM 48.4 °F - 35.4 °F 61% 29.76 in 10.0 mi North 3.5 mph - N/A   Light Drizzle
4:15 PM 48.0 °F - 36.5 °F 64% 29.75 in 10.0 mi North 11.5 mph - N/A   Overcast
4:35 PM 46.0 °F 39.9 °F 37.2 °F 71% 29.74 in 10.0 mi NNE 13.8 mph - N/A   Overcast
4:55 PM 44.8 °F 38.0 °F 37.6 °F 76% 29.74 in 10.0 mi NNE 15.0 mph 18.4 mph N/A   Overcast
5:15 PM 44.8 °F 38.3 °F 37.9 °F 77% 29.72 in 10.0 mi NE 13.8 mph - N/A   Overcast
5:35 PM 45.3 °F 40.1 °F 37.4 °F 74% 29.73 in 10.0 mi North 10.4 mph - N/A   Overcast
5:55 PM 45.0 °F 41.8 °F 37.4 °F 75% 29.74 in 10.0 mi NNE 5.8 mph - N/A   Light Drizzle
6:15 PM 44.4 °F 42.0 °F 39.2 °F 82% 29.74 in 10.0 mi ENE 4.6 mph - N/A Rain Rain
6:35 PM 43.0 °F 41.3 °F 40.1 °F 90% 29.75 in 10.0 mi SE 3.5 mph - N/A Rain Light Rain
6:55 PM 42.8 °F 41.1 °F 40.3 °F 91% 29.75 in 10.0 mi SSE 3.5 mph - N/A Rain Light Rain
7:15 PM 42.8 °F 38.6 °F 40.1 °F 90% 29.74 in 10.0 mi ENE 6.9 mph - N/A   Overcast
7:35 PM 42.3 °F 37.3 °F 39.6 °F 90% 29.75 in 10.0 mi East 8.1 mph - N/A   Overcast
7:55 PM 41.4 °F 36.8 °F 38.3 °F 89% 29.75 in 10.0 mi ENE 6.9 mph - N/A   Overcast
8:15 PM 41.4 °F 35.2 °F 38.1 °F 88% 29.74 in 10.0 mi NE 10.4 mph - N/A   Overcast
8:35 PM 41.5 °F 35.9 °F 38.3 °F 88% 29.73 in 10.0 mi NNE 9.2 mph - N/A   Overcast
8:55 PM 41.9 °F 37.5 °F 37.4 °F 84% 29.73 in 10.0 mi NNE 6.9 mph - N/A   Mostly Cloudy
9:15 PM 41.2 °F 36.6 °F 37.4 °F 86% 29.73 in 10.0 mi East 6.9 mph - N/A   Scattered Clouds
9:35 PM 39.4 °F 34.5 °F 36.1 °F 88% 29.72 in 10.0 mi NE 6.9 mph - N/A   Clear
9:55 PM 39.2 °F 35.0 °F 35.6 °F 87% 29.72 in 10.0 mi NE 5.8 mph - N/A   Clear
10:15 PM 39.4 °F 32.3 °F 34.9 °F 84% 29.72 in 10.0 mi NNE 11.5 mph - N/A   Clear
10:35 PM 38.8 °F 32.6 °F 34.5 °F 84% 29.71 in 10.0 mi NE 9.2 mph - N/A   Clear
10:55 PM 38.3 °F 32.5 °F 34.2 °F 85% 29.71 in 10.0 mi NE 8.1 mph - N/A   Clear
11:15 PM 38.7 °F 32.4 °F 34.3 °F 84% 29.71 in 10.0 mi NE 9.2 mph - N/A   Scattered Clouds
11:35 PM 37.9 °F 32.7 °F 34.7 °F 88% 29.71 in 10.0 mi NE 6.9 mph - N/A   Overcast
11:55 PM 38.3 °F 32.5 °F 35.1 °F 88% 29.71 in 10.0 mi East 8.1 mph - N/A   Overcast